Regional Weather Roundup
Issued by NWS Glasgow, MT

Home | Current Version | Previous Version | Text Only | Print | Product List | Glossary On
Versions: 1 2 3 4 5 6 7 8 9 10 11 12 13 14 15 16 17 18 19 20 21 22 23 24 25 26 27
000
ASUS45 KGGW 241315
RWRGGW
HOURLY REGIONAL WEATHER ROUNDUP FOR NORTHEAST MONTANA
NATIONAL WEATHER SERVICE GLASGOW MONTANA
600 AM MST TUE JAN 24 2017

NOTE: "FAIR" INDICATES FEW OR NO CLOUDS BELOW 12,000 FEET WITH NO
SIGNIFICANT WEATHER AND/OR OBSTRUCTIONS TO VISISBILITY.

NORTHEAST MONTANA


CITY           SKY/WX    TMP DP  RH WIND       PRES   REMARKS
GLASGOW        CLOUDY    20  15  81 NW6       29.87S
PLENTYWOOD       N/A     18  16  92 NW8         N/A
WOLF POINT     CLOUDY    21  15  78 W6        29.90S
JORDAN           N/A     20  17  88 NW5       29.87S
WINNETT          N/A     22  17  81 W9          N/A
SIDNEY         FLURRIES  21  17  84 NW9       29.88S
GLENDIVE       FLURRIES  20  16  84 NW10      29.86S
MALTA            N/A     22  19  89 W3          N/A

FORT PECK REPORTS


CITY           SKY/WX    TMP DP  RH WIND       PRES   REMARKS
FORT PECK        N/A     21  20  96 W2          N/A
THE PINES        N/A     22  18  85 CALM        N/A

SOUTHEAST MONTANA


CITY           SKY/WX    TMP DP  RH WIND       PRES   REMARKS
BILLINGS       FLURRIES  22  20  92 NE7       29.82R
MILES CITY     CLOUDY    22  17  81 N8        29.87R
BAKER          CLOUDY    21  18  88 N6        29.83R
LIVINGSTON     LGT SNOW  18  13  80 NW8       29.77S

CENTRAL MONTANA


CITY           SKY/WX    TMP DP  RH WIND       PRES   REMARKS
HAVRE          CLOUDY    19  16  88 NW8       29.90R
LEWISTOWN      CLOUDY    16  13  88 W9        29.82R
GREAT FALLS    PTCLDY     9   7  92 SW7       29.85S
CUT BANK       CLOUDY    11   8  88 W8        29.83S
HELENA         CLOUDY    10   6  84 SE3       29.86R
BUTTE          CLOUDY     7   4  87 CALM      29.77R
BOZEMAN        LGT SNOW  18  14  84 NW5       29.79R FOG

WESTERN MONTANA


CITY           SKY/WX    TMP DP  RH WIND       PRES   REMARKS
MISSOULA       CLOUDY    21  15  78 E7        29.90R
KALISPELL      NOT AVBL

NORTH DAKOTA


CITY           SKY/WX    TMP DP  RH WIND       PRES   REMARKS
WILLISTON      CLOUDY    20  15  81 NW9       29.87F
DICKINSON      CLOUDY    20  17  88 NW8       29.81R
MINOT          CLOUDY    24  18  77 W12       29.85R
BISMARCK       CLOUDY    25  19  78 NW3       29.88R

SOUTHERN SASKATCHEWAN


CITY           SKY/WX    TMP DP  RH WIND       PRES   REMARKS
REGINA         FLURRIES  14  10  85 NW10      29.87R
MOOSE JAW      FLURRIES  14  10  85 NW12      29.89S
ESTEVAN        FLURRIES  16  12  86 NW15      29.86R
SWIFT CURRENT  LGT SNOW  10   9  92 W9        29.83S





USA.gov is the U.S. government's official web portal to all federal, state and local government web resources and services.